This demonstration page uses our WeatherBlox Daily Observations layout. Learn more.

Left ArrowRight Arrow

Hourly Observations for February 9, 2016

Temp ( °F °C ) Dew Point ( °F °C ) Humidity (%) Winds ( mph kmh ) Pressure ( in mb ) Visibility ( mi km ) Precip ( " mm )
12:54 am 00:54 Cloudy 28 -2.2 18 -7.8 66 66 N 20 31 30.17 1022 10 16 0.00 0.00
1:54 am 01:54 Clear 26 -3.3 14 -10 60 60 N 23 37 30.16 1022 10 16 0.00 0.00
2:54 am 02:54 Clear 24 -4.4 13 -10.6 62 62 N 17 28 30.18 1022 10 16 0.00 0.00
3:54 am 03:54 Clear 22 -5.6 12 -11.1 66 66 N 18 30 30.19 1022 10 16 0.00 0.00
4:54 am 04:54 Clear 21 -6.1 10 -12.2 62 62 NNW 17 28 30.21 1023 10 16 0.00 0.00
5:54 am 05:54 Clear 20 -6.7 9 -12.8 62 62 N 21 33 30.23 1024 10 16 0.00 0.00
6:54 am 06:54 Clear 18 -7.8 7 -13.9 62 62 NNW 18 30 30.26 1025 10 16 0.00 0.00
7:54 am 07:54 Sunny 18 -7.8 6 -14.4 59 59 N 21 33 30.28 1025 10 16 0.00 0.00
8:54 am 08:54 Sunny 18 -7.8 7 -13.9 62 62 NNW 20 31 30.31 1027 10 16 0.00 0.00
9:54 am 09:54 Sunny 20 -6.7 8 -13.3 60 60 NNW 22 35 30.33 1027 10 16 0.00 0.00
10:54 am 10:54 Sunny 21 -6.1 8 -13.3 57 57 NNW 20 31 30.35 1028 10 16 0.00 0.00
11:54 am 11:54 Sunny 22 -5.6 8 -13.3 55 55 N 18 30 30.36 1028 10 16 0.00 0.00
12:54 pm 12:54 Sunny 23 -5 9 -12.8 55 55 N 16 26 30.35 1028 10 16 0.00 0.00
1:54 pm 13:54 Sunny 24 -4.4 10 -12.2 55 55 N 14 22 30.33 1027 10 16 0.00 0.00
2:54 pm 14:54 Sunny 27 -2.8 10 -12.2 49 49 NNW 10 17 30.32 1027 10 16 0.00 0.00
3:54 pm 15:54 Sunny 28 -2.2 12 -11.1 51 51 NW 13 20 30.32 1027 10 16 0.00 0.00
4:54 pm 16:54 Cloudy 28 -2.2 13 -10.6 53 53 WNW 10 17 30.33 1027 10 16 0.00 0.00
5:54 pm 17:54 Cloudy 28 -2.2 14 -10 56 56 NW 7 11 30.33 1027 10 16 0.00 0.00
6:54 pm 18:54 Mostly Clear 26 -3.3 14 -10 60 60 W 3 6 30.33 1027 10 16 0.00 0.00
7:54 pm 19:54 Clear 24 -4.4 14 -10 65 65 W 6 9 30.33 1027 10 16 0.00 0.00
8:54 pm 20:54 Clear 23 -5 13 -10.6 65 65 WNW 3 6 30.32 1027 10 16 0.00 0.00
9:54 pm 21:54 Cloudy 23 -5 13 -10.6 65 65 Calm 30.29 1026 10 16 0.00 0.00
10:54 pm 22:54 Cloudy 21 -6.1 14 -10 74 74 SSW 3 6 30.28 1025 10 16 0.00 0.00
11:54 pm 23:54 Cloudy 23 -5 15 -9.4 72 72 S 3 6 30.26 1025 10 16 0.00 0.00

Powered by AerisWeather